Year,Month,Day,Hour,Minute,Value (Times are PST for temperature in C)
2020,09,10,00,00,13.60
2020,09,10,00,01,13.60
2020,09,10,00,02,13.60
2020,09,10,00,03,13.60
2020,09,10,00,04,13.60
2020,09,10,00,05,13.60
2020,09,10,00,06,13.60
2020,09,10,00,07,13.60
2020,09,10,00,08,13.60
2020,09,10,00,09,13.60
2020,09,10,00,10,13.60
2020,09,10,00,11,13.60
2020,09,10,00,12,13.60
2020,09,10,00,13,13.60
2020,09,10,00,14,13.60
2020,09,10,00,15,13.60
2020,09,10,00,16,13.60
2020,09,10,00,17,13.60
2020,09,10,00,18,13.60
2020,09,10,00,19,13.60
2020,09,10,00,20,13.60
2020,09,10,00,21,13.60
2020,09,10,00,22,13.60
2020,09,10,00,23,13.60
2020,09,10,00,24,13.60
2020,09,10,00,25,13.60
2020,09,10,00,26,13.60
2020,09,10,00,27,13.60
2020,09,10,00,28,13.60
2020,09,10,00,29,13.60
2020,09,10,00,30,13.60
2020,09,10,00,31,13.60
2020,09,10,00,32,13.60
2020,09,10,00,33,13.60
2020,09,10,00,34,13.60
2020,09,10,00,35,13.60
2020,09,10,00,36,13.60
2020,09,10,00,37,13.60
2020,09,10,00,38,13.60
2020,09,10,00,39,13.60
2020,09,10,00,40,13.60
2020,09,10,00,41,13.60
2020,09,10,00,42,13.60
2020,09,10,00,43,13.50
2020,09,10,00,44,13.50
2020,09,10,00,45,13.50
2020,09,10,00,46,13.50
2020,09,10,00,47,13.50
2020,09,10,00,48,13.50
2020,09,10,00,49,13.50
2020,09,10,00,50,13.50
2020,09,10,00,51,13.50
2020,09,10,00,52,13.50
2020,09,10,00,53,13.50
2020,09,10,00,54,13.40
2020,09,10,00,55,13.40
2020,09,10,00,56,13.40
2020,09,10,00,57,13.40
2020,09,10,00,58,13.40
2020,09,10,00,59,13.40
2020,09,10,01,00,13.40
2020,09,10,01,01,13.40
2020,09,10,01,02,13.40
2020,09,10,01,03,13.30
2020,09,10,01,04,13.30
2020,09,10,01,05,13.40
2020,09,10,01,06,13.40
2020,09,10,01,07,13.40
2020,09,10,01,08,13.40
2020,09,10,01,09,13.40
2020,09,10,01,10,13.40
2020,09,10,01,11,13.40
2020,09,10,01,12,13.40
2020,09,10,01,13,13.40
2020,09,10,01,14,13.40
2020,09,10,01,15,13.40
2020,09,10,01,16,13.40
2020,09,10,01,17,13.40
2020,09,10,01,18,13.40
2020,09,10,01,19,13.40
2020,09,10,01,20,13.40
2020,09,10,01,21,13.40
2020,09,10,01,22,13.40
2020,09,10,01,23,13.40
2020,09,10,01,24,13.40
2020,09,10,01,25,13.40
2020,09,10,01,26,13.50
2020,09,10,01,27,13.50
2020,09,10,01,28,13.50
2020,09,10,01,29,13.50
2020,09,10,01,30,13.60
2020,09,10,01,31,13.60
2020,09,10,01,32,13.60
2020,09,10,01,33,13.60
2020,09,10,01,34,13.60
2020,09,10,01,35,13.60
2020,09,10,01,36,13.60
2020,09,10,01,37,13.70
2020,09,10,01,38,13.70
2020,09,10,01,39,13.70
2020,09,10,01,40,13.70
2020,09,10,01,41,13.70
2020,09,10,01,42,13.70
2020,09,10,01,43,13.70
2020,09,10,01,44,13.80
2020,09,10,01,45,13.80
2020,09,10,01,46,13.80
2020,09,10,01,47,13.80
2020,09,10,01,48,13.80
2020,09,10,01,49,13.80
2020,09,10,01,50,13.90
2020,09,10,01,51,13.90
2020,09,10,01,52,13.90
2020,09,10,01,53,13.90
2020,09,10,01,54,13.90
2020,09,10,01,55,13.90
2020,09,10,01,56,13.90
2020,09,10,01,57,13.90
2020,09,10,01,58,13.90
2020,09,10,01,59,14.00
2020,09,10,02,00,14.00
2020,09,10,02,01,14.00
2020,09,10,02,02,14.10
2020,09,10,02,03,14.10
2020,09,10,02,04,14.10
2020,09,10,02,05,14.10
2020,09,10,02,06,14.10
2020,09,10,02,07,14.10
2020,09,10,02,08,14.10
2020,09,10,02,09,14.10
2020,09,10,02,10,14.10
2020,09,10,02,11,14.10
2020,09,10,02,12,14.10
2020,09,10,02,13,14.10
2020,09,10,02,14,14.10
2020,09,10,02,15,14.10
2020,09,10,02,16,14.10
2020,09,10,02,17,14.20
2020,09,10,02,18,14.20
2020,09,10,02,19,14.20
2020,09,10,02,20,14.20
2020,09,10,02,21,14.20
2020,09,10,02,22,14.20
2020,09,10,02,23,14.20
2020,09,10,02,24,14.20
2020,09,10,02,25,14.20
2020,09,10,02,26,14.20
2020,09,10,02,27,14.20
2020,09,10,02,28,14.20
2020,09,10,02,29,14.20
2020,09,10,02,30,14.20
2020,09,10,02,31,14.20
2020,09,10,02,32,14.20
2020,09,10,02,33,14.30
2020,09,10,02,34,14.30
2020,09,10,02,35,14.30
2020,09,10,02,36,14.30
2020,09,10,02,37,14.30
2020,09,10,02,38,14.30
2020,09,10,02,39,14.30
2020,09,10,02,40,14.40
2020,09,10,02,41,14.40
2020,09,10,02,42,14.40
2020,09,10,02,43,14.40
2020,09,10,02,44,14.40
2020,09,10,02,45,14.50
2020,09,10,02,46,14.50
2020,09,10,02,47,14.50
2020,09,10,02,48,14.60
2020,09,10,02,49,14.60
2020,09,10,02,50,14.60
2020,09,10,02,51,14.70
2020,09,10,02,52,14.70
2020,09,10,02,53,14.70
2020,09,10,02,54,14.70
2020,09,10,02,55,14.70
2020,09,10,02,56,14.70
2020,09,10,02,57,14.80
2020,09,10,02,58,14.80
2020,09,10,02,59,14.80
2020,09,10,03,00,14.80
2020,09,10,03,01,14.80
2020,09,10,03,02,14.80
2020,09,10,03,03,14.70
2020,09,10,03,04,14.70
2020,09,10,03,05,14.70
2020,09,10,03,06,14.70
2020,09,10,03,07,14.70
2020,09,10,03,08,14.70
2020,09,10,03,09,14.70
2020,09,10,03,10,14.70
2020,09,10,03,11,14.70
2020,09,10,03,12,14.60
2020,09,10,03,13,14.60
2020,09,10,03,14,14.60
2020,09,10,03,15,14.60
2020,09,10,03,16,14.60
2020,09,10,03,17,14.60
2020,09,10,03,18,14.50
2020,09,10,03,19,14.50
2020,09,10,03,20,14.50
2020,09,10,03,21,14.50
2020,09,10,03,22,14.40
2020,09,10,03,23,14.40
2020,09,10,03,24,14.40
2020,09,10,03,25,14.40
2020,09,10,03,26,14.40
2020,09,10,03,27,14.30
2020,09,10,03,28,14.30
2020,09,10,03,29,14.30
2020,09,10,03,30,14.30
2020,09,10,03,31,14.30
2020,09,10,03,32,14.30
2020,09,10,03,33,14.30
2020,09,10,03,34,14.30
2020,09,10,03,35,14.30
2020,09,10,03,36,14.20
2020,09,10,03,37,14.20
2020,09,10,03,38,14.20
2020,09,10,03,39,14.20
2020,09,10,03,40,14.20
2020,09,10,03,41,14.20
2020,09,10,03,42,14.20
2020,09,10,03,43,14.10
2020,09,10,03,44,14.10
2020,09,10,03,45,14.10
2020,09,10,03,46,14.10
2020,09,10,03,47,14.10
2020,09,10,03,48,14.10
2020,09,10,03,49,14.10
2020,09,10,03,50,14.00
2020,09,10,03,51,14.00
2020,09,10,03,52,14.00
2020,09,10,03,53,14.00
2020,09,10,03,54,14.00
2020,09,10,03,55,14.00
2020,09,10,03,56,13.90
2020,09,10,03,57,13.90
2020,09,10,03,58,13.90
2020,09,10,03,59,13.90
2020,09,10,04,00,13.90
2020,09,10,04,01,13.90
2020,09,10,04,02,13.90
2020,09,10,04,03,13.90
2020,09,10,04,04,13.90
2020,09,10,04,05,13.90
2020,09,10,04,06,13.90
2020,09,10,04,07,13.90
2020,09,10,04,08,13.90
2020,09,10,04,09,13.90
2020,09,10,04,10,13.90
2020,09,10,04,11,13.90
2020,09,10,04,12,13.80
2020,09,10,04,13,13.80
2020,09,10,04,14,13.80
2020,09,10,04,15,13.80
2020,09,10,04,16,13.80
2020,09,10,04,17,13.70
2020,09,10,04,18,13.70
2020,09,10,04,19,13.70
2020,09,10,04,20,13.70
2020,09,10,04,21,13.70
2020,09,10,04,22,13.70
2020,09,10,04,23,13.70
2020,09,10,04,24,13.60
2020,09,10,04,25,13.60
2020,09,10,04,26,13.60
2020,09,10,04,27,13.60
2020,09,10,04,28,13.60
2020,09,10,04,29,13.60
2020,09,10,04,30,13.50
2020,09,10,04,31,13.50
2020,09,10,04,32,13.50
2020,09,10,04,33,13.50
2020,09,10,04,34,13.50
2020,09,10,04,35,13.50
2020,09,10,04,36,13.50
2020,09,10,04,37,13.50
2020,09,10,04,38,13.50
2020,09,10,04,39,13.50
2020,09,10,04,40,13.50
2020,09,10,04,41,13.50
2020,09,10,04,42,13.50
2020,09,10,04,43,13.50
2020,09,10,04,44,13.50
2020,09,10,04,45,13.50
2020,09,10,04,46,13.50
2020,09,10,04,47,13.50
2020,09,10,04,48,13.50
2020,09,10,04,49,13.50
2020,09,10,04,50,13.50
2020,09,10,04,51,13.50
2020,09,10,04,52,13.50
2020,09,10,04,53,13.50
2020,09,10,04,54,13.40
2020,09,10,04,55,13.40
2020,09,10,04,56,13.40
2020,09,10,04,57,13.40
2020,09,10,04,58,13.40
2020,09,10,04,59,13.40
2020,09,10,05,00,13.40
2020,09,10,05,01,13.40
2020,09,10,05,02,13.40
2020,09,10,05,03,13.40
2020,09,10,05,04,13.40
2020,09,10,05,05,13.40
2020,09,10,05,06,13.40
2020,09,10,05,07,13.40
2020,09,10,05,08,13.50
2020,09,10,05,09,13.50
2020,09,10,05,10,13.50
2020,09,10,05,11,13.50
2020,09,10,05,12,13.50
2020,09,10,05,13,13.50
2020,09,10,05,14,13.50
2020,09,10,05,15,13.50
2020,09,10,05,16,13.50
2020,09,10,05,17,13.40
2020,09,10,05,18,13.40
2020,09,10,05,19,13.40
2020,09,10,05,20,13.40
2020,09,10,05,21,13.40
2020,09,10,05,22,13.40
2020,09,10,05,23,13.40
2020,09,10,05,24,13.40
2020,09,10,05,25,13.40
2020,09,10,05,26,13.30
2020,09,10,05,27,13.30
2020,09,10,05,28,13.30
2020,09,10,05,29,13.30
2020,09,10,05,30,13.30
2020,09,10,05,31,13.30
2020,09,10,05,32,13.30
2020,09,10,05,33,13.30
2020,09,10,05,34,13.30
2020,09,10,05,35,13.30
2020,09,10,05,36,13.30
2020,09,10,05,37,13.30
2020,09,10,05,38,13.30
2020,09,10,05,39,13.30
2020,09,10,05,40,13.30
2020,09,10,05,41,13.20
2020,09,10,05,42,13.20
2020,09,10,05,43,13.20
2020,09,10,05,44,13.20
2020,09,10,05,45,13.20
2020,09,10,05,46,13.20
2020,09,10,05,47,13.20
2020,09,10,05,48,13.20
2020,09,10,05,49,13.20
2020,09,10,05,50,13.20
2020,09,10,05,51,13.20
2020,09,10,05,52,13.20
2020,09,10,05,53,13.20
2020,09,10,05,54,13.20
2020,09,10,05,55,13.20
2020,09,10,05,56,13.10
2020,09,10,05,57,13.10
2020,09,10,05,58,13.10
2020,09,10,05,59,13.10
2020,09,10,06,00,13.10
2020,09,10,06,01,13.10
2020,09,10,06,02,13.10
2020,09,10,06,03,13.10
2020,09,10,06,04,13.10
2020,09,10,06,05,13.10
2020,09,10,06,06,13.10
2020,09,10,06,07,13.10
2020,09,10,06,08,13.00
2020,09,10,06,09,13.00
2020,09,10,06,10,13.00
2020,09,10,06,11,13.00
2020,09,10,06,12,13.00
2020,09,10,06,13,12.90
2020,09,10,06,14,12.90
2020,09,10,06,15,12.90
2020,09,10,06,16,12.90
2020,09,10,06,17,12.90
2020,09,10,06,18,12.90
2020,09,10,06,19,12.80
2020,09,10,06,20,12.80
2020,09,10,06,21,12.80
2020,09,10,06,22,12.80
2020,09,10,06,23,12.80
2020,09,10,06,24,12.80
2020,09,10,06,25,12.80
2020,09,10,06,26,12.80
2020,09,10,06,27,12.80
2020,09,10,06,28,12.80
2020,09,10,06,29,12.80
2020,09,10,06,30,12.90
2020,09,10,06,31,12.90
2020,09,10,06,32,12.90
2020,09,10,06,33,12.90
2020,09,10,06,34,12.90
2020,09,10,06,35,12.90
2020,09,10,06,36,12.90
2020,09,10,06,37,12.90
2020,09,10,06,38,12.90
2020,09,10,06,39,12.90
2020,09,10,06,40,12.90
2020,09,10,06,41,12.90
2020,09,10,06,42,12.90
2020,09,10,06,43,12.90
2020,09,10,06,44,12.90
2020,09,10,06,45,12.90
2020,09,10,06,46,12.90
2020,09,10,06,47,12.90
2020,09,10,06,48,12.90
2020,09,10,06,49,12.90
2020,09,10,06,50,12.90
2020,09,10,06,51,12.90
2020,09,10,06,52,12.90
2020,09,10,06,53,12.90
2020,09,10,06,54,12.90
2020,09,10,06,55,12.90
2020,09,10,06,56,12.90
2020,09,10,06,57,12.90
2020,09,10,06,58,12.90
2020,09,10,06,59,12.90
2020,09,10,07,00,12.90
2020,09,10,07,01,12.90
2020,09,10,07,02,12.90
2020,09,10,07,03,12.90
2020,09,10,07,04,12.90
2020,09,10,07,05,12.90
2020,09,10,07,06,12.90
2020,09,10,07,07,12.90
2020,09,10,07,08,12.90
2020,09,10,07,09,12.90
2020,09,10,07,10,12.90
2020,09,10,07,11,12.90
2020,09,10,07,12,12.90
2020,09,10,07,13,12.90
2020,09,10,07,14,12.90
2020,09,10,07,15,12.90
2020,09,10,07,16,12.90
2020,09,10,07,17,12.90
2020,09,10,07,18,12.90
2020,09,10,07,19,12.90
2020,09,10,07,20,12.90
2020,09,10,07,21,12.90
2020,09,10,07,22,12.90
2020,09,10,07,23,12.90
2020,09,10,07,24,13.00
2020,09,10,07,25,13.00
2020,09,10,07,26,13.00
2020,09,10,07,27,13.00
2020,09,10,07,28,13.10
2020,09,10,07,29,13.10
2020,09,10,07,30,13.10
2020,09,10,07,31,13.20
2020,09,10,07,32,13.20
2020,09,10,07,33,13.20
2020,09,10,07,34,13.20
2020,09,10,07,35,13.30
2020,09,10,07,36,13.30
2020,09,10,07,37,13.30
2020,09,10,07,38,13.40
2020,09,10,07,39,13.40
2020,09,10,07,40,13.40
2020,09,10,07,41,13.50
2020,09,10,07,42,13.50
2020,09,10,07,43,13.60
2020,09,10,07,44,13.60
2020,09,10,07,45,13.70
2020,09,10,07,46,13.70
2020,09,10,07,47,13.70
2020,09,10,07,48,13.80
2020,09,10,07,49,13.80
2020,09,10,07,50,13.80
2020,09,10,07,51,13.90
2020,09,10,07,52,13.90
2020,09,10,07,53,14.00
2020,09,10,07,54,14.00
2020,09,10,07,55,14.10
2020,09,10,07,56,14.10
2020,09,10,07,57,14.10
2020,09,10,07,58,14.20
2020,09,10,07,59,14.20
2020,09,10,08,00,14.20
2020,09,10,08,01,14.30
2020,09,10,08,02,14.30
2020,09,10,08,03,14.40
2020,09,10,08,04,14.40
2020,09,10,08,05,14.40
2020,09,10,08,06,14.50
2020,09,10,08,07,14.50
2020,09,10,08,08,14.60
2020,09,10,08,09,14.60
2020,09,10,08,10,14.60
2020,09,10,08,11,14.70
2020,09,10,08,12,14.70
2020,09,10,08,13,14.80
2020,09,10,08,14,14.80
2020,09,10,08,15,14.90
2020,09,10,08,16,15.00
2020,09,10,08,17,15.00
2020,09,10,08,18,15.10
2020,09,10,08,19,15.20
2020,09,10,08,20,15.20
2020,09,10,08,21,15.30
2020,09,10,08,22,15.30
2020,09,10,08,23,15.40
2020,09,10,08,24,15.50
2020,09,10,08,25,15.60
2020,09,10,08,26,15.60
2020,09,10,08,27,15.70
2020,09,10,08,28,15.80
2020,09,10,08,29,15.90
2020,09,10,08,30,16.00
2020,09,10,08,31,16.10
2020,09,10,08,32,16.20
2020,09,10,08,33,16.30
2020,09,10,08,34,16.50
2020,09,10,08,35,16.60
2020,09,10,08,36,16.70
2020,09,10,08,37,16.80
2020,09,10,08,38,16.90
2020,09,10,08,39,17.00
2020,09,10,08,40,17.20
2020,09,10,08,41,17.30
2020,09,10,08,42,17.40
2020,09,10,08,43,17.50
2020,09,10,08,44,17.60
2020,09,10,08,45,17.70
2020,09,10,08,46,17.80
2020,09,10,08,47,17.90
2020,09,10,08,48,18.00
2020,09,10,08,49,18.20
2020,09,10,08,50,18.30
2020,09,10,08,51,18.40
2020,09,10,08,52,18.60
2020,09,10,08,53,18.70
2020,09,10,08,54,18.90
2020,09,10,08,55,19.10
2020,09,10,08,56,19.20
2020,09,10,08,57,19.40
2020,09,10,08,58,19.60
2020,09,10,08,59,19.70
2020,09,10,09,00,19.90
2020,09,10,09,01,20.10
2020,09,10,09,02,20.20
2020,09,10,09,03,20.40
2020,09,10,09,04,20.50
2020,09,10,09,05,20.70
2020,09,10,09,06,20.80
2020,09,10,09,07,20.90
2020,09,10,09,08,21.10
2020,09,10,09,09,21.20
2020,09,10,09,10,21.30
2020,09,10,09,11,21.40
2020,09,10,09,12,21.60
2020,09,10,09,13,21.70
2020,09,10,09,14,21.80
2020,09,10,09,15,22.00
2020,09,10,09,16,22.10
2020,09,10,09,17,22.20
2020,09,10,09,18,22.30
2020,09,10,09,19,22.50
2020,09,10,09,20,22.60
2020,09,10,09,21,22.80
2020,09,10,09,22,22.90
2020,09,10,09,23,23.00
2020,09,10,09,24,23.20
2020,09,10,09,25,23.20
2020,09,10,09,26,23.30
2020,09,10,09,27,23.40
2020,09,10,09,28,23.60
2020,09,10,09,29,23.60
2020,09,10,09,30,23.70
2020,09,10,09,31,23.80
2020,09,10,09,32,23.90
2020,09,10,09,33,24.00
2020,09,10,09,34,24.10
2020,09,10,09,35,24.20
2020,09,10,09,36,24.30
2020,09,10,09,37,24.30
2020,09,10,09,38,24.40
2020,09,10,09,39,24.50
2020,09,10,09,40,24.50
2020,09,10,09,41,24.60
2020,09,10,09,42,24.60
2020,09,10,09,43,24.70
2020,09,10,09,44,24.70
2020,09,10,09,45,24.70
2020,09,10,09,46,24.70
2020,09,10,09,47,24.70
2020,09,10,09,48,24.70
2020,09,10,09,49,24.70
2020,09,10,09,50,24.70
2020,09,10,09,51,24.80
2020,09,10,09,52,24.80
2020,09,10,09,53,24.80
2020,09,10,09,54,24.80
2020,09,10,09,55,24.90
2020,09,10,09,56,24.90
2020,09,10,09,57,25.00
2020,09,10,09,58,25.00
2020,09,10,09,59,25.00
2020,09,10,10,00,25.10
2020,09,10,10,01,25.10
2020,09,10,10,02,25.20
2020,09,10,10,03,25.20
2020,09,10,10,04,25.20
2020,09,10,10,05,25.10
2020,09,10,10,06,25.10
2020,09,10,10,07,25.10
2020,09,10,10,08,25.10
2020,09,10,10,09,25.10
2020,09,10,10,10,25.10
2020,09,10,10,11,25.10
2020,09,10,10,12,25.10
2020,09,10,10,13,25.10
2020,09,10,10,14,25.10
2020,09,10,10,15,25.20
2020,09,10,10,16,25.20
2020,09,10,10,17,25.20
2020,09,10,10,18,25.20
2020,09,10,10,19,25.20
2020,09,10,10,20,25.30
2020,09,10,10,21,25.30
2020,09,10,10,22,25.30
2020,09,10,10,23,25.30
2020,09,10,10,24,25.30
2020,09,10,10,25,25.40
2020,09,10,10,26,25.40
2020,09,10,10,27,25.40
2020,09,10,10,28,25.40
2020,09,10,10,29,25.40
2020,09,10,10,30,25.50
2020,09,10,10,31,25.50
2020,09,10,10,32,25.50
2020,09,10,10,33,25.60
2020,09,10,10,34,25.60
2020,09,10,10,35,25.60
2020,09,10,10,36,25.70
2020,09,10,10,37,25.70
2020,09,10,10,38,25.80
2020,09,10,10,39,25.80
2020,09,10,10,40,25.90
2020,09,10,10,41,26.00
2020,09,10,10,42,26.10
2020,09,10,10,43,26.10
2020,09,10,10,44,26.20
2020,09,10,10,45,26.20
2020,09,10,10,46,26.20
2020,09,10,10,47,26.30
2020,09,10,10,48,26.30
2020,09,10,10,49,26.30
2020,09,10,10,50,26.30
2020,09,10,10,51,26.40
2020,09,10,10,52,26.40
2020,09,10,10,53,26.40
2020,09,10,10,54,26.40
2020,09,10,10,55,26.40
2020,09,10,10,56,26.40
2020,09,10,10,57,26.30
2020,09,10,10,58,26.30
2020,09,10,10,59,26.30
2020,09,10,11,00,26.20
2020,09,10,11,01,26.20
2020,09,10,11,02,26.20
2020,09,10,11,03,26.20
2020,09,10,11,04,26.20
2020,09,10,11,05,26.20
2020,09,10,11,06,26.30
2020,09,10,11,07,26.30
2020,09,10,11,08,26.30
2020,09,10,11,09,26.40
2020,09,10,11,10,26.50
2020,09,10,11,11,26.50
2020,09,10,11,12,26.60
2020,09,10,11,13,26.60
2020,09,10,11,14,26.70
2020,09,10,11,15,26.70
2020,09,10,11,16,26.60
2020,09,10,11,17,26.60
2020,09,10,11,18,26.60
2020,09,10,11,19,26.60
2020,09,10,11,20,26.50
2020,09,10,11,21,26.50
2020,09,10,11,22,26.50
2020,09,10,11,23,26.50
2020,09,10,11,24,26.50
2020,09,10,11,25,26.60
2020,09,10,11,26,26.60
2020,09,10,11,27,26.70
2020,09,10,11,28,26.70
2020,09,10,11,29,26.80
2020,09,10,11,30,26.80
2020,09,10,11,31,26.90
2020,09,10,11,32,27.00
2020,09,10,11,33,27.00
2020,09,10,11,34,27.10
2020,09,10,11,35,27.10
2020,09,10,11,36,27.10
2020,09,10,11,37,27.10
2020,09,10,11,38,27.10
2020,09,10,11,39,27.00
2020,09,10,11,40,27.00
2020,09,10,11,41,27.00
2020,09,10,11,42,27.00
2020,09,10,11,43,27.00
2020,09,10,11,44,26.90
2020,09,10,11,45,27.00
2020,09,10,11,46,27.00
2020,09,10,11,47,27.00
2020,09,10,11,48,27.10
2020,09,10,11,49,27.10
2020,09,10,11,50,27.20
2020,09,10,11,51,27.20
2020,09,10,11,52,27.30
2020,09,10,11,53,27.30
2020,09,10,11,54,27.30
2020,09,10,11,55,27.40
2020,09,10,11,56,27.40
2020,09,10,11,57,27.50
2020,09,10,11,58,27.50
2020,09,10,11,59,27.60
2020,09,10,12,00,27.60
2020,09,10,12,01,27.60
2020,09,10,12,02,27.60
2020,09,10,12,03,27.50
2020,09,10,12,04,27.50
2020,09,10,12,05,27.40
2020,09,10,12,06,27.30
2020,09,10,12,07,27.30
2020,09,10,12,08,27.30
2020,09,10,12,09,27.30
2020,09,10,12,10,27.30
2020,09,10,12,11,27.30
2020,09,10,12,12,27.30
2020,09,10,12,13,27.30
2020,09,10,12,14,27.30
2020,09,10,12,15,27.40
2020,09,10,12,16,27.40
2020,09,10,12,17,27.40
2020,09,10,12,18,27.40
2020,09,10,12,19,27.40
2020,09,10,12,20,27.40
2020,09,10,12,21,27.40
2020,09,10,12,22,27.30
2020,09,10,12,23,27.30
2020,09,10,12,24,27.30
2020,09,10,12,25,27.30
2020,09,10,12,26,27.30
2020,09,10,12,27,27.30
2020,09,10,12,28,27.30
2020,09,10,12,29,27.30
2020,09,10,12,30,27.20
2020,09,10,12,31,27.20
2020,09,10,12,32,27.20
2020,09,10,12,33,27.20
2020,09,10,12,34,27.20
2020,09,10,12,35,27.20
2020,09,10,12,36,27.20
2020,09,10,12,37,27.20
2020,09,10,12,38,27.20
2020,09,10,12,39,27.30
2020,09,10,12,40,27.30
2020,09,10,12,41,27.30
2020,09,10,12,42,27.30
2020,09,10,12,43,27.20
2020,09,10,12,44,27.20
2020,09,10,12,45,27.20
2020,09,10,12,46,27.20
2020,09,10,12,47,27.20
2020,09,10,12,48,27.20
2020,09,10,12,49,27.20
2020,09,10,12,50,27.10
2020,09,10,12,51,27.10
2020,09,10,12,52,27.10
2020,09,10,12,53,27.10
2020,09,10,12,54,27.00
2020,09,10,12,55,26.90
2020,09,10,12,56,26.80
2020,09,10,12,57,26.80
2020,09,10,12,58,26.70
2020,09,10,12,59,26.70
2020,09,10,13,00,26.70
2020,09,10,13,01,26.70
2020,09,10,13,02,26.70
2020,09,10,13,03,26.70
2020,09,10,13,04,26.70
2020,09,10,13,05,26.70
2020,09,10,13,06,26.70
2020,09,10,13,07,26.70
2020,09,10,13,08,26.70
2020,09,10,13,09,26.70
2020,09,10,13,10,26.70
2020,09,10,13,11,26.70
2020,09,10,13,12,26.60
2020,09,10,13,13,26.60
2020,09,10,13,14,26.60
2020,09,10,13,15,26.60
2020,09,10,13,16,26.60
2020,09,10,13,17,26.70
2020,09,10,13,18,26.70
2020,09,10,13,19,26.70
2020,09,10,13,20,26.70
2020,09,10,13,21,26.70
2020,09,10,13,22,26.80
2020,09,10,13,23,26.80
2020,09,10,13,24,26.80
2020,09,10,13,25,26.80
2020,09,10,13,26,26.80
2020,09,10,13,27,26.80
2020,09,10,13,28,26.80
2020,09,10,13,29,26.80
2020,09,10,13,30,26.80
2020,09,10,13,31,26.80
2020,09,10,13,32,26.80
2020,09,10,13,33,26.80
2020,09,10,13,34,26.80
2020,09,10,13,35,26.80
2020,09,10,13,36,26.80
2020,09,10,13,37,26.80
2020,09,10,13,38,26.80
2020,09,10,13,39,26.80
2020,09,10,13,40,26.80
2020,09,10,13,41,26.80
2020,09,10,13,42,26.80
2020,09,10,13,43,26.90
2020,09,10,13,44,26.90
2020,09,10,13,45,26.90
2020,09,10,13,46,26.90
2020,09,10,13,47,26.90
2020,09,10,13,48,26.90
2020,09,10,13,49,26.90
2020,09,10,13,50,26.90
2020,09,10,13,51,27.00
2020,09,10,13,52,27.00
2020,09,10,13,53,27.10
2020,09,10,13,54,27.10
2020,09,10,13,55,27.10
2020,09,10,13,56,27.20
2020,09,10,13,57,27.20
2020,09,10,13,58,27.20
2020,09,10,13,59,27.30
2020,09,10,14,00,27.30
2020,09,10,14,01,27.30
2020,09,10,14,02,27.40
2020,09,10,14,03,27.40
2020,09,10,14,04,27.40
2020,09,10,14,05,27.40
2020,09,10,14,06,27.50
2020,09,10,14,07,27.50
2020,09,10,14,08,27.50
2020,09,10,14,09,27.60
2020,09,10,14,10,27.60
2020,09,10,14,11,27.60
2020,09,10,14,12,27.60
2020,09,10,14,13,27.60
2020,09,10,14,14,27.70
2020,09,10,14,15,27.70
2020,09,10,14,16,27.70
2020,09,10,14,17,27.70
2020,09,10,14,18,27.70
2020,09,10,14,19,27.80
2020,09,10,14,20,27.80
2020,09,10,14,21,27.80
2020,09,10,14,22,27.80
2020,09,10,14,23,27.80
2020,09,10,14,24,27.80
2020,09,10,14,25,27.80
2020,09,10,14,26,27.80
2020,09,10,14,27,27.80
2020,09,10,14,28,27.80
2020,09,10,14,29,27.80
2020,09,10,14,30,27.90
2020,09,10,14,31,27.90
2020,09,10,14,32,27.90
2020,09,10,14,33,28.00
2020,09,10,14,34,28.00
2020,09,10,14,35,28.00
2020,09,10,14,36,28.10
2020,09,10,14,37,28.10
2020,09,10,14,38,28.10
2020,09,10,14,39,28.10
2020,09,10,14,40,28.10
2020,09,10,14,41,28.20
2020,09,10,14,42,28.20
2020,09,10,14,43,28.20
2020,09,10,14,44,28.20
2020,09,10,14,45,28.30
2020,09,10,14,46,28.30
2020,09,10,14,47,28.30
2020,09,10,14,48,28.20
2020,09,10,14,49,28.20
2020,09,10,14,50,28.20
2020,09,10,14,51,28.20
2020,09,10,14,52,28.20
2020,09,10,14,53,28.20
2020,09,10,14,54,28.20
2020,09,10,14,55,28.20
2020,09,10,14,56,28.20
2020,09,10,14,57,28.20
2020,09,10,14,58,28.20
2020,09,10,14,59,28.20
2020,09,10,15,00,28.20
2020,09,10,15,01,28.20
2020,09,10,15,02,28.20
2020,09,10,15,03,28.20
2020,09,10,15,04,28.20
2020,09,10,15,05,28.20
2020,09,10,15,06,28.20
2020,09,10,15,07,28.20
2020,09,10,15,08,28.20
2020,09,10,15,09,28.20
2020,09,10,15,10,28.20
2020,09,10,15,11,28.20
2020,09,10,15,12,28.20
2020,09,10,15,13,28.20
2020,09,10,15,14,28.20
2020,09,10,15,15,28.20
2020,09,10,15,16,28.20
2020,09,10,15,17,28.20
2020,09,10,15,18,28.20
2020,09,10,15,19,28.20
2020,09,10,15,20,28.20
2020,09,10,15,21,28.20
2020,09,10,15,22,28.20
2020,09,10,15,23,28.20
2020,09,10,15,24,28.20
2020,09,10,15,25,28.20
2020,09,10,15,26,28.20
2020,09,10,15,27,28.20
2020,09,10,15,28,28.20
2020,09,10,15,29,28.20
2020,09,10,15,30,28.20
2020,09,10,15,31,28.20
2020,09,10,15,32,28.20
2020,09,10,15,33,28.20
2020,09,10,15,34,28.20
2020,09,10,15,35,28.20
2020,09,10,15,36,28.20
2020,09,10,15,37,28.20
2020,09,10,15,38,28.30
2020,09,10,15,39,28.30
2020,09,10,15,40,28.20
2020,09,10,15,41,28.20
2020,09,10,15,42,28.20
2020,09,10,15,43,28.10
2020,09,10,15,44,28.10
2020,09,10,15,45,28.00
2020,09,10,15,46,28.00
2020,09,10,15,47,28.00
2020,09,10,15,48,27.90
2020,09,10,15,49,27.80
2020,09,10,15,50,27.80
2020,09,10,15,51,27.70
2020,09,10,15,52,27.70
2020,09,10,15,53,27.60
2020,09,10,15,54,27.60
2020,09,10,15,55,27.60
2020,09,10,15,56,27.50
2020,09,10,15,57,27.50
2020,09,10,15,58,27.40
2020,09,10,15,59,27.30
2020,09,10,16,00,27.30
2020,09,10,16,01,27.20
2020,09,10,16,02,27.20
2020,09,10,16,03,27.10
2020,09,10,16,04,27.10
2020,09,10,16,05,27.00
2020,09,10,16,06,27.00
2020,09,10,16,07,27.00
2020,09,10,16,08,27.00
2020,09,10,16,09,26.90
2020,09,10,16,10,26.90
2020,09,10,16,11,26.80
2020,09,10,16,12,26.80
2020,09,10,16,13,26.80
2020,09,10,16,14,26.80
2020,09,10,16,15,26.80
2020,09,10,16,16,26.80
2020,09,10,16,17,26.80
2020,09,10,16,18,26.80
2020,09,10,16,19,26.70
2020,09,10,16,20,26.70
2020,09,10,16,21,26.70
2020,09,10,16,22,26.70
2020,09,10,16,23,26.70
2020,09,10,16,24,26.60
2020,09,10,16,25,26.60
2020,09,10,16,26,26.60
2020,09,10,16,27,26.60
2020,09,10,16,28,26.60
2020,09,10,16,29,26.60
2020,09,10,16,30,26.50
2020,09,10,16,31,26.50
2020,09,10,16,32,26.50
2020,09,10,16,33,26.40
2020,09,10,16,34,26.40
2020,09,10,16,35,26.40
2020,09,10,16,36,26.40
2020,09,10,16,37,26.40
2020,09,10,16,38,26.40
2020,09,10,16,39,26.40
2020,09,10,16,40,26.30
2020,09,10,16,41,26.30
2020,09,10,16,42,26.30
2020,09,10,16,43,26.30
2020,09,10,16,44,26.30
2020,09,10,16,45,26.20
2020,09,10,16,46,26.20
2020,09,10,16,47,26.20
2020,09,10,16,48,26.10
2020,09,10,16,49,26.10
2020,09,10,16,50,26.10
2020,09,10,16,51,26.00
2020,09,10,16,52,26.00
2020,09,10,16,53,25.90
2020,09,10,16,54,25.90
2020,09,10,16,55,25.90
2020,09,10,16,56,25.80
2020,09,10,16,57,25.80
2020,09,10,16,58,25.80
2020,09,10,16,59,25.80
2020,09,10,17,00,25.80
2020,09,10,17,01,25.70
2020,09,10,17,02,25.70
2020,09,10,17,03,25.70
2020,09,10,17,04,25.60
2020,09,10,17,05,25.60
2020,09,10,17,06,25.60
2020,09,10,17,07,25.60
2020,09,10,17,08,25.50
2020,09,10,17,09,25.50
2020,09,10,17,10,25.40
2020,09,10,17,11,25.40
2020,09,10,17,12,25.30
2020,09,10,17,13,25.30
2020,09,10,17,14,25.30
2020,09,10,17,15,25.20
2020,09,10,17,16,25.20
2020,09,10,17,17,25.10
2020,09,10,17,18,25.10
2020,09,10,17,19,25.00